DW6062 Weather Reports


Display with metric or nautical units.
time (UTC)temp
F
wind
direction
speed
MPH
gust
MPH
rain 1hr
in
rain 24hr
in
rain mn
in
humidity
%
barometer
mb
20260506174613 56 272 1.0 7.0 0.00 1.68 0.00 53 1012.7
20260506174113 54 352 3.0 8.0 0.00 1.68 0.00 54 1013.0
20260506173614 54 23 5.0 8.0 0.00 1.68 0.00 55 1012.8
20260506173113 54 346 5.0 8.0 0.00 1.68 0.00 56 1012.9
20260506172113 54 88 4.0 6.0 0.00 1.68 0.00 55 1012.4
20260506171613 55 45 2.0 6.0 0.00 1.68 0.00 58 1012.8
20260506171113 54 207 2.0 6.0 0.00 1.68 0.00 55 1012.7
20260506170613 54 304 3.0 13.0 0.00 1.68 0.00 55 1012.6
20260506170113 54 49 5.0 13.0 0.00 1.68 0.00 57 1012.8
20260506165613 54 317 5.0 9.0 0.00 1.68 0.00 56 1012.6
20260506165113 55 291 2.0 7.0 0.00 1.68 0.00 58 1012.7
20260506164613 55 253 3.0 8.0 0.00 1.68 0.00 58 1012.7
20260506164113 54 48 5.0 8.0 0.00 1.68 0.00 57 1012.8
20260506163613 53 38 6.0 8.0 0.00 1.68 0.00 60 1012.9
20260506163114 53 352 5.0 8.0 0.00 1.68 0.00 57 1012.9
20260506162613 54 18 3.0 8.0 0.00 1.68 0.00 62 1012.9
20260506162114 53 177 1.0 9.0 0.00 1.68 0.00 59 1012.8
20260506161613 52 315 3.0 9.0 0.00 1.68 0.00 61 1012.8
20260506161113 52 33 6.0 12.0 0.00 1.68 0.00 62 1012.8
20260506160613 53 43 3.0 6.0 0.00 1.68 0.00 62 1012.6
20260506155613 53 242 1.0 5.0 0.00 1.68 0.00 65 1012.4
20260506155113 52 61 3.0 6.0 0.00 1.68 0.00 65 1012.3
20260506154613 52 58 3.0 3.0 0.00 1.68 0.00 65 1012.3
20260506154113 52 204 2.0 3.0 0.00 1.68 0.00 67 1012.3
20260506153613 53 205 2.0 5.0 0.00 1.68 0.00 68 1012.3
20260506153113 51 165 2.0 6.0 0.00 1.68 0.00 70 1012.5
20260506152613 52 157 3.0 6.0 0.00 1.68 0.00 68 1012.4
20260506152113 52 345 3.0 6.0 0.00 1.68 0.00 70 1012.4
20260506151613 50 249 3.0 5.0 0.00 1.68 0.00 71 1012.4
20260506151113 50 222 3.0 5.0 0.00 1.68 0.00 71 1012.3
20260506150613 51 47 3.0 6.0 0.00 1.68 0.00 71 1012.2
20260506145613 50 269 2.0 6.0 0.00 1.68 0.00 73 1012.1
20260506145113 49 328 2.0 6.0 0.00 1.68 0.00 74 1012.0
20260506144613 49 31 6.0 8.0 0.00 1.68 0.00 73 1011.9
20260506143613 49 10 5.0 7.0 0.00 1.68 0.00 74 1011.7
20260506142613 48 52 3.0 5.0 0.00 1.68 0.00 76 1011.8
20260506142113 48 276 2.0 5.0 0.00 1.68 0.00 76 1011.6
20260506141613 48 353 3.0 6.0 0.00 1.68 0.00 76 1011.7
20260506141113 48 255 2.0 5.0 0.00 1.68 0.00 77 1011.7
20260506140613 47 217 1.0 3.0 0.00 1.68 0.00 77 1011.7
20260506140113 48 280 2.0 3.0 0.00 1.68 0.00 77 1011.8
20260506135113 44 32 3.0 7.0 0.00 1.68 0.00 82 1011.6
20260506134613 44 32 3.0 7.0 0.00 1.68 0.00 82 1011.6
20260506134113 44 32 3.0 7.0 0.00 1.68 0.00 82 1011.6
20260506133613 44 32 3.0 7.0 0.00 1.68 0.00 82 1011.6
20260506133113 44 32 3.0 7.0 0.00 1.68 0.00 82 1011.6
20260506132613 44 32 3.0 7.0 0.00 1.68 0.00 82 1011.5
20260506132113 44 32 3.0 7.0 0.00 1.68 0.00 82 1011.2
20260506131613 44 32 3.0 7.0 0.00 1.68 0.00 82 1011.3
20260506131113 44 32 3.0 7.0 0.00 1.68 0.00 82 1011.2
20260506130613 44 32 3.0 7.0 0.00 1.68 0.00 82 1011.1
20260506130113 44 48 2.0 2.0 0.00 1.68 0.00 88 1011.3
20260506125613 44 48 2.0 2.0 0.00 1.68 0.00 88 1011.2
20260506124613 44 48 2.0 2.0 0.00 1.68 0.00 88 1010.8
20260506124113 44 48 2.0 5.0 0.00 1.68 0.00 88 1010.7
20260506123613 43 347 3.0 5.0 0.00 1.68 0.00 90 1010.8
20260506123113 43 347 3.0 5.0 0.00 1.68 0.00 90 1010.5
20260506122612 43 347 3.0 5.0 0.00 1.68 0.00 90 1010.5
20260506122113 43 347 3.0 5.0 0.00 1.68 0.00 90 1010.4
20260506121613 43 347 3.0 5.0 0.00 1.68 0.00 90 1010.4
20260506121113 43 13 2.0 5.0 0.00 1.68 0.00 91 1010.3
20260506120613 43 20 2.0 5.0 0.00 1.68 0.00 91 1010.3
20260506120113 43 20 2.0 5.0 0.00 1.68 0.00 91 1010.4
20260506115613 42 190 0.0 0.0 0.00 1.68 0.00 95 1010.3
20260506115113 42 190 0.0 0.0 0.00 1.68 0.00 95 1010.2
20260506114613 42 190 0.0 0.0 0.00 1.68 0.00 95 1010.2
20260506114113 42 190 0.0 0.0 0.00 1.68 0.00 95 1010.0
20260506113613 42 190 0.0 0.0 0.00 1.68 0.00 95 1010.2
20260506113112 42 190 0.0 0.0 0.00 1.68 0.00 95 1010.0
20260506112612 42 190 0.0 0.0 0.00 1.68 0.00 95 1010.3
20260506112113 42 175 1.0 1.0 0.00 1.68 0.00 95 1010.0
20260506111612 42 197 1.0 1.0 0.00 1.68 0.00 95 1010.2
20260506111112 42 197 1.0 1.0 0.00 1.68 0.00 95 1010.0
20260506110613 42 150 0.0 0.0 0.00 1.68 0.00 95 1010.0
20260506110113 42 201 0.0 0.0 0.00 1.68 0.00 95 1009.9
20260506105613 41 186 0.0 1.0 0.00 1.68 0.00 95 1009.4
20260506105113 41 163 1.0 5.0 0.00 1.68 0.00 95 1009.2
20260506104113 41 166 1.0 3.0 0.00 1.68 0.63 96 1009.3
20260506103613 41 0 2.0 5.0 0.00 1.69 0.63 96 1009.3
20260506103113 41 88 2.0 5.0 0.00 1.69 0.63 96 1009.6
20260506102113 42 241 3.0 7.0 0.00 1.69 0.63 96 1009.2
20260506101613 42 41 2.0 6.0 0.00 1.70 0.63 96 1009.2
20260506101114 42 6 1.0 6.0 0.00 1.71 0.63 97 1009.3
20260506100614 43 0 2.0 3.0 0.00 1.71 0.63 97 1008.9
20260506095614 43 0 2.0 3.0 0.01 1.71 0.63 97 1009.5
20260506095113 43 162 0.0 0.0 0.01 1.71 0.63 97 1009.2
20260506094113 43 162 0.0 0.0 0.01 1.71 0.63 97 1008.3
20260506093613 43 162 0.0 0.0 0.01 1.71 0.63 97 1008.2
20260506092613 43 162 0.0 0.0 0.02 1.71 0.63 97 1008.0
20260506092114 43 162 0.0 0.0 0.02 1.71 0.63 97 1008.2
20260506091613 43 162 0.0 0.0 0.02 1.71 0.63 97 1008.5
20260506091113 43 135 1.0 2.0 0.02 1.71 0.63 97 1008.8
20260506090613 43 44 1.0 2.0 0.02 1.71 0.63 97 1009.0
20260506090113 43 72 1.0 2.0 0.01 1.70 0.62 97 1009.2
20260506085614 43 28 1.0 3.0 0.02 1.70 0.62 97 1009.4
20260506085114 43 352 3.0 3.0 0.02 1.70 0.62 97 1009.2
20260506084614 43 47 1.0 3.0 0.03 1.70 0.62 97 1009.0
20260506084114 44 302 2.0 2.0 0.03 1.70 0.62 97 1009.2
20260506083614 43 9 0.0 2.0 0.04 1.70 0.62 97 1009.2
20260506082613 43 163 1.0 2.0 0.05 1.69 0.61 97 1009.1
20260506082113 44 132 1.0 3.0 0.06 1.69 0.61 97 1008.9
20260506081613 44 22 2.0 5.0 0.06 1.69 0.61 97 1009.2
20260506081113 43 149 1.0 2.0 0.06 1.69 0.61 97 1008.5
20260506080613 43 334 1.0 3.0 0.06 1.69 0.61 97 1008.7
20260506080113 43 35 2.0 5.0 0.06 1.69 0.61 97 1008.7
20260506072613 43 37 1.0 5.0 0.10 1.64 0.56 97 1009.1
20260506071113 44 183 0.0 3.0 0.14 1.63 0.55 97 1008.8
20260506070113 44 335 1.0 3.0 0.18 1.63 0.55 97 1008.9
20260506061614 44 173 0.0 10.0 0.19 1.51 0.43 97 1008.8
20260506061113 44 352 2.0 10.0 0.20 1.49 0.41 97 1008.8
20260506060613 44 163 2.0 5.0 0.22 1.47 0.39 97 1008.7
20260506060113 44 178 1.0 9.0 0.22 1.45 0.37 97 1008.8
20260506051115 45 41 1.0 3.0 0.20 1.29 0.21 97 1009.0
20260506050613 45 246 0.0 6.0 0.17 1.25 0.17 97 1008.9
20260506045114 45 189 0.0 2.0 0.11 1.18 0.10 97 1009.1
20260506044614 45 69 2.0 2.0 0.08 1.14 0.06 97 1009.0
20260506044113 45 15 2.0 7.0 0.09 1.14 0.06 97 1008.8
20260506043613 46 171 0.0 1.0 0.05 1.10 0.02 97 1008.6
20260506043115 46 80 3.0 6.0 0.06 1.10 0.02 97 1008.6
20260506042629 46 35 3.0 6.0 0.06 1.09 0.01 97 1008.8
20260506042113 46 50 5.0 8.0 0.06 1.09 0.01 97 1008.7
20260506041613 46 337 3.0 6.0 0.07 1.09 0.01 97 1008.7
20260506041113 46 154 1.0 7.0 0.08 1.09 0.01 97 1008.8
20260506035613 46 2 4.0 6.0 0.09 1.08 0.35 97 1009.0
20260506035113 46 180 1.0 9.0 0.09 1.07 0.34 97 1009.1
20260506034613 46 20 3.0 9.0 0.09 1.06 0.33 97 1009.1
20260506033613 46 223 2.0 6.0 0.10 1.05 0.32 97 1009.1
20260506033113 46 21 2.0 3.0 0.10 1.04 0.31 97 1009.4
20260506032613 46 225 1.0 5.0 0.11 1.03 0.30 97 1009.4
20260506032112 46 37 3.0 6.0 0.12 1.03 0.30 97 1009.7
20260506031113 46 47 2.0 9.0 0.14 1.01 0.28 97 1009.8
20260506030613 47 23 4.0 9.0 0.16 1.01 0.28 97 1009.9
20260506030113 47 342 6.0 9.0 0.17 1.00 0.27 97 1010.0
20260506025613 47 84 2.0 5.0 0.18 0.99 0.26 97 1009.9
20260506025113 47 355 3.0 6.0 0.19 0.98 0.25 97 1010.1
20260506024613 47 46 1.0 6.0 0.19 0.97 0.24 97 1010.0
20260506024113 47 302 2.0 7.0 0.19 0.96 0.23 97 1009.9
20260506023113 48 18 2.0 5.0 0.19 0.94 0.21 97 1010.1
20260506022613 48 38 3.0 6.0 0.18 0.92 0.19 97 1010.1
20260506021613 48 211 1.0 3.0 0.20 0.89 0.16 97 1009.9
20260506021113 48 54 2.0 5.0 0.19 0.87 0.14 97 1009.7
20260506020612 48 42 1.0 5.0 0.18 0.85 0.12 97 1009.7
20260506020113 49 40 2.0 6.0 0.18 0.83 0.10 97 1009.7
20260506015613 49 169 2.0 3.0 0.18 0.81 0.08 97 1009.4
20260506015113 49 209 0.0 1.0 0.18 0.79 0.06 97 1009.4
20260506014613 49 148 0.0 2.0 0.19 0.78 0.05 97 1009.4
20260506013113 49 17 1.0 3.0 0.21 0.75 0.02 97 1008.9
20260506012113 49 118 1.0 2.0 0.23 0.73 0.60 96 1009.0
20260506011613 48 186 0.0 3.0 0.22 0.70 0.57 96 1008.7
20260506011113 48 26 2.0 5.0 0.22 0.69 0.56 96 1008.9
20260506010613 49 25 2.0 5.0 0.21 0.68 0.55 96 1008.7
20260506010113 49 34 3.0 7.0 0.19 0.66 0.53 96 1008.8
20260506005613 49 287 1.0 8.0 0.17 0.64 0.51 96 1008.9
20260506004612 48 10 3.0 9.0 0.13 0.60 0.47 96 1008.9
20260506004113 49 23 5.0 9.0 0.11 0.58 0.45 96 1009.2
20260506003613 49 67 3.0 6.0 0.09 0.56 0.43 96 1009.0
20260506003113 49 9 5.0 9.0 0.08 0.54 0.41 96 1008.9
20260506002113 49 36 5.0 8.0 0.05 0.50 0.37 95 1008.9
20260506001613 49 12 3.0 6.0 0.04 0.48 0.35 95 1008.6
20260506001113 49 349 5.0 7.0 0.05 0.47 0.34 95 1008.7
20260506000613 49 33 3.0 5.0 0.06 0.47 0.34 95 1008.6
20260506000113 50 101 1.0 7.0 0.08 0.47 0.34 95 1008.6
20260505235613 50 31 6.0 7.0 0.08 0.47 0.34 95 1008.3
20260505234612 50 298 1.0 3.0 0.09 0.47 0.34 95 1008.3
20260505233612 50 190 0.0 0.0 0.10 0.47 0.34 94 1008.1
20260505233113 50 183 0.0 0.0 0.10 0.46 0.33 94 1008.1
20260505232613 50 170 0.0 2.0 0.11 0.46 0.33 94 1008.2
20260505232113 50 97 0.0 2.0 0.10 0.45 0.32 94 1008.2
20260505231613 50 256 1.0 2.0 0.09 0.44 0.31 94 1008.5
20260505231112 50 193 1.0 7.0 0.08 0.42 0.29 94 1008.5
20260505230613 50 39 8.0 12.0 0.07 0.41 0.28 93 1008.7
20260505225113 52 330 5.0 12.0 0.09 0.38 0.25 93 1008.7
20260505224612 53 27 4.0 9.0 0.14 0.38 0.25 93 1008.7
20260505224113 53 7 5.0 7.0 0.17 0.37 0.24 93 1008.5
20260505223613 53 5 3.0 3.0 0.21 0.37 0.24 92 1008.5
20260505223112 53 36 3.0 7.0 0.21 0.36 0.23 92 1008.9
20260505222613 54 2 3.0 9.0 0.21 0.35 0.22 92 1008.9
20260505222113 54 45 5.0 9.0 0.21 0.35 0.22 92 1008.8
20260505221613 55 65 2.0 7.0 0.22 0.35 0.22 92 1008.6
20260505221113 55 110 2.0 7.0 0.21 0.34 0.21 92 1008.7
20260505220613 56 243 0.0 2.0 0.21 0.34 0.21 92 1008.8
20260505220112 56 176 0.0 2.0 0.20 0.33 0.20 91 1008.8
20260505215613 56 194 0.0 2.0 0.07 0.31 0.18 91 1008.9
20260505215113 56 221 0.0 5.0 0.05 0.29 0.16 91 1008.6
20260505214613 56 230 1.0 5.0 0.00 0.24 0.11 91 1008.6
20260505214112 56 200 0.0 2.0 0.09 0.20 0.07 91 1008.4
20260505213613 56 195 1.0 6.0 0.06 0.16 0.03 90 1008.3
20260505213113 56 206 0.0 1.0 0.06 0.15 0.02 90 1008.0
20260505212612 56 188 2.0 3.0 0.06 0.14 0.01 90 1008.2
20260505212113 56 199 2.0 6.0 0.06 0.14 0.01 90 1008.0
20260505211613 56 232 0.0 1.0 0.05 0.13 0.00 90 1008.1
20260505211112 56 206 0.0 0.0 0.05 0.13 0.00 90 1008.2
20260505210613 56 196 1.0 2.0 0.05 0.13 0.00 90 1008.2
20260505210113 57 194 0.0 0.0 0.05 0.13 0.00 90 1008.0
20260505204114 57 166 0.0 1.0 0.07 0.12 0.10 90 1008.4
20260505203614 57 199 0.0 6.0 0.06 0.11 0.09 89 1008.5
20260505203114 57 215 3.0 6.0 0.05 0.10 0.08 89 1008.6
20260505202614 57 198 3.0 5.0 0.04 0.09 0.07 89 1008.6
20260505202114 57 202 1.0 2.0 0.03 0.08 0.06 89 1008.6
20260505201614 57 204 1.0 9.0 0.03 0.08 0.06 89 1008.6
20260505200614 57 201 0.0 3.0 0.03 0.08 0.06 88 1008.7
20260505195614 57 196 1.0 2.0 0.03 0.08 0.06 88 1008.8
20260505195114 58 192 1.0 3.0 0.03 0.08 0.06 88 1008.8
20260505194613 58 221 3.0 5.0 0.03 0.07 0.05 87 1008.7
20260505194114 58 219 1.0 3.0 0.01 0.05 0.03 87 1008.9
20260505193614 57 197 0.0 0.0 0.02 0.05 0.03 87 1008.9
20260505193114 57 203 0.0 2.0 0.02 0.05 0.03 87 1008.9
20260505192613 57 229 0.0 3.0 0.02 0.05 0.03 87 1008.7
20260505192114 57 205 1.0 2.0 0.02 0.05 0.03 87 1008.9
20260505191614 57 199 0.0 2.0 0.02 0.05 0.03 87 1008.9
20260505191114 58 191 1.0 3.0 0.02 0.05 0.03 87 1008.8
20260505190613 58 190 1.0 2.0 0.02 0.05 0.03 87 1008.9
20260505185614 58 277 3.0 5.0 0.02 0.05 0.03 86 1008.8
20260505185113 58 199 1.0 2.0 0.02 0.05 0.03 86 1008.9
20260505184614 58 214 1.0 2.0 0.01 0.04 0.02 85 1009.2
20260505183113 59 173 2.0 2.0 0.00 0.03 0.01 84 1008.9
20260505182114 59 208 2.0 5.0 0.00 0.03 0.01 83 1009.2
20260505181613 60 191 2.0 3.0 0.00 0.03 0.01 82 1009.1
20260505181114 59 177 2.0 5.0 0.00 0.03 0.01 82 1009.0
20260505180614 59 93 1.0 5.0 0.00 0.03 0.01 81 1008.9
20260505180114 60 157 2.0 8.0 0.00 0.03 0.01 80 1008.8
20260505175614 62 314 3.0 8.0 0.00 0.03 0.01 76 1009.0
20260505175114 63 264 1.0 8.0 0.00 0.03 0.01 74 1008.8